Regional Weather Roundup
Issued by NWS State College, PA

Home | Current Version | Previous Version | Text Only | Print | Product List | Glossary Off
Versions: 1 2 3 4 5 6 7 8 9 10 11 12 13 14 15 16 17 18 19 20 21 22 23 24 25 26 27 28 29 30 31 32 33 34 35 36 37 38 39 40 41 42 43 44 45 46 47 48 49 50

000
ASUS41 KCTP 270210
RWRCTP

REGIONAL WEATHER ROUNDUP
NATIONAL WEATHER SERVICE STATE COLLEGE PA
1000 PM EDT THU APR 26 2018

Note: "fair" indicates few or no clouds below 12,000 feet with no
significant weather and/or obstructions to visibility.

* = STATION THAT DOES NOT REPORT PRECIPITATION /E.G. RAIN...SNOW...ETC/
    THUNDER OR FOG.

PAZ002>004-007>009-013>016-020>023-029>032-270300-
WESTERN PENNSYLVANIA

CITY           SKY/WX    TMP DP  RH WIND       PRES   REMARKS
ERIE           FAIR      44  34  67 S3        29.90F
MEADVILLE      FAIR      44  35  70 N6        29.89F
FRANKLIN*      FAIR      49  34  56 NE6       29.89F
NEW CASTLE     FAIR      49  37  63 CALM      29.88F
BEAVER COUNTY  NOT AVBL
BUTLER*        FAIR      51  37  58 CALM      29.89S
PITTSBURGH INT CLOUDY    56  37  49 CALM      29.87S
PITTSBURGH     FAIR      55  34  45 CALM      29.87F
INDIANA*       CLEAR     48  39  71 CALM      29.93S
LATROBE        CLEAR     48  37  66 CALM      29.89F
WASHINGTON CO* FAIR      50  39  66 CALM      29.90F
$$

PAZ004>006-010>012-017>019-024>028-033>037-041-042-045-046-049>053-270300-
CENTRAL PENNSYLVANIA

CITY           SKY/WX    TMP DP  RH WIND       PRES   REMARKS
BRADFORD       FAIR      44  31  60 NW3       29.90R
DUBOIS         FAIR      51  34  52 CALM      29.88S
CLEARFIELD     FAIR      53  34  48 SW3       29.89R
JOHNSTOWN      FAIR      50  34  54 NW7       29.88F
ALTOONA        FAIR      53  35  50 CALM      29.89R
STATE COLLEGE  CLEAR     55  34  44 W5        29.88
WILLIAMSPORT   FAIR      54  40  59 W3        29.84S
SELINSGROVE    FAIR      50  43  77 CALM      29.87R
FT INDIANTOWN  FAIR      55  41  59 W3        29.87S
CAPITAL CITY   FAIR      56  42  59 SW3       29.87R
HARRISBURG     MOCLDY    56  49  77 CALM      29.87R
YORK           FAIR      50  44  80 CALM      29.87S
$$

PAZ038>040-043-044-047-048-054-055-060>062-067>071-270300-
EASTERN PENNSYLVANIA

CITY           SKY/WX    TMP DP  RH WIND       PRES   REMARKS
SCRANTON       FAIR      53  40  61 E5        29.87R
MOUNT POCONO   FAIR      46  40  79 CALM      29.88R
ALLENTOWN      FAIR      58  40  51 SW3       29.87R
QUAKERTOWN*    CLEAR     52  45  76 CALM      29.87F
READING        FAIR      55  44  66 CALM      29.87R
LANCASTER      FAIR      56  42  59 CALM      29.88R
COATESVILLE    FAIR      55  43  62 CALM      29.90R
POTTSTOWN      FAIR      51  42  71 CALM      29.89S
BLUE BELL      FAIR      50  45  81 CALM      29.90R
DOYLESTOWN     FAIR      55  43  63 CALM      29.87R
WILLOW GROVE   NOT AVBL
NORTH PHILA    FAIR      61  42  49 W3        29.89R
PHILADELPHIA   FAIR      63  40  42 NW5       29.89R
$$



USA.gov is the U.S. government's official web portal to all federal, state and local government web resources and services.